Time,TemperatureF,DewpointF,PressureIn,WindDirection,WindDirectionDegrees,WindSpeedMPH,WindSpeedGustMPH,Humidity,HourlyPrecipIn,Conditions,Clouds,dailyrainin,SolarRadiationWatts/m^2,SoftwareType,DateUTC
2013-07-22 00:02:00,67.4,62.4,29.92,SW,217,0.0,1.0,84,0.00,,,0.00,0,Wunderground v.1.15,2013-07-22 07:02:00,
2013-07-22 00:07:00,67.4,62.4,29.92,SW,227,1.0,3.0,84,0.00,,,0.00,0,Wunderground v.1.15,2013-07-22 07:07:00,
2013-07-22 00:13:00,67.4,62.4,29.92,SW,222,1.0,1.0,84,0.00,,,0.00,0,Wunderground v.1.15,2013-07-22 07:13:00,
2013-07-22 00:18:00,67.4,62.4,29.92,SW,222,0.0,1.0,84,0.00,,,0.00,0,Wunderground v.1.15,2013-07-22 07:18:00,
2013-07-22 00:24:00,67.3,62.3,29.92,SW,224,0.0,0.0,84,0.00,,,0.00,0,Wunderground v.1.15,2013-07-22 07:24:00,
2013-07-22 00:29:00,67.2,62.2,29.92,SW,224,0.0,1.0,84,0.00,,,0.00,0,Wunderground v.1.15,2013-07-22 07:29:00,
2013-07-22 00:34:00,67.2,62.2,29.92,WSW,242,1.0,2.0,84,0.00,,,0.00,0,Wunderground v.1.15,2013-07-22 07:34:00,
2013-07-22 00:40:00,67.2,62.2,29.92,WSW,249,1.0,1.0,84,0.00,,,0.00,0,Wunderground v.1.15,2013-07-22 07:40:00,
2013-07-22 00:45:00,67.1,62.1,29.92,WSW,254,0.0,2.0,84,0.00,,,0.00,0,Wunderground v.1.15,2013-07-22 07:45:00,
2013-07-22 00:51:00,67.0,62.0,29.92,WSW,242,0.0,1.0,84,0.00,,,0.00,0,Wunderground v.1.15,2013-07-22 07:51:00,
2013-07-22 00:56:00,66.8,61.8,29.92,SW,232,1.0,4.0,84,0.00,,,0.00,0,Wunderground v.1.15,2013-07-22 07:56:00,
2013-07-22 01:02:00,66.7,61.7,29.92,SW,231,2.0,3.0,84,0.00,,,0.00,0,Wunderground v.1.15,2013-07-22 08:02:00,
2013-07-22 01:07:00,66.7,61.7,29.92,West,266,1.0,3.0,84,0.00,,,0.00,0,Wunderground v.1.15,2013-07-22 08:07:00,
2013-07-22 01:12:00,66.7,61.7,29.92,WSW,257,0.0,1.0,84,0.00,,,0.00,0,Wunderground v.1.15,2013-07-22 08:12:00,
2013-07-22 01:18:00,66.7,61.7,29.92,SW,235,0.0,1.0,84,0.00,,,0.00,0,Wunderground v.1.15,2013-07-22 08:18:00,
2013-07-22 01:23:00,66.6,61.6,29.92,WSW,238,1.0,2.0,84,0.00,,,0.00,0,Wunderground v.1.15,2013-07-22 08:23:00,
2013-07-22 01:28:00,66.6,61.6,29.92,SW,230,1.0,2.0,84,0.00,,,0.00,0,Wunderground v.1.15,2013-07-22 08:28:00,
2013-07-22 01:34:00,66.5,61.5,29.92,SW,221,1.0,3.0,84,0.00,,,0.00,0,Wunderground v.1.15,2013-07-22 08:34:00,
2013-07-22 01:39:00,66.5,61.5,29.92,SSW,206,1.0,1.0,84,0.00,,,0.00,0,Wunderground v.1.15,2013-07-22 08:39:00,
2013-07-22 01:45:00,66.5,61.5,29.92,SW,215,1.0,3.0,84,0.00,,,0.00,0,Wunderground v.1.15,2013-07-22 08:45:00,
2013-07-22 01:50:00,66.3,61.3,29.92,SW,219,1.0,2.0,84,0.00,,,0.00,0,Wunderground v.1.15,2013-07-22 08:50:00,
2013-07-22 01:56:00,66.2,61.6,29.92,SW,215,0.0,3.0,85,0.00,,,0.00,0,Wunderground v.1.15,2013-07-22 08:56:00,
2013-07-22 02:01:00,66.1,61.5,29.92,SSW,202,0.0,3.0,85,0.00,,,0.00,0,Wunderground v.1.15,2013-07-22 09:01:00,
2013-07-22 02:07:00,65.9,61.3,29.92,SW,216,1.0,3.0,85,0.00,,,0.00,0,Wunderground v.1.15,2013-07-22 09:07:00,
2013-07-22 02:11:00,65.9,61.3,29.92,SW,216,1.0,1.0,85,0.00,,,0.00,0,Wunderground v.1.15,2013-07-22 09:11:00,
2013-07-22 02:16:00,65.8,61.2,29.91,SW,216,0.0,1.0,85,0.00,,,0.00,0,Wunderground v.1.15,2013-07-22 09:16:00,
2013-07-22 02:27:00,65.7,61.4,29.91,SW,216,0.0,0.0,86,0.00,,,0.00,0,Wunderground v.1.15,2013-07-22 09:27:00,
2013-07-22 02:32:00,65.6,61.3,29.91,SSE,161,0.0,1.0,86,0.00,,,0.00,0,Wunderground v.1.15,2013-07-22 09:32:00,
2013-07-22 02:38:00,65.6,61.3,29.91,SSE,161,0.0,1.0,86,0.00,,,0.00,0,Wunderground v.1.15,2013-07-22 09:38:00,
2013-07-22 02:43:00,65.6,61.3,29.91,SSE,161,0.0,0.0,86,0.00,,,0.00,0,Wunderground v.1.15,2013-07-22 09:43:00,
2013-07-22 02:49:00,65.3,61.0,29.91,SSE,161,0.0,0.0,86,0.00,,,0.00,0,Wunderground v.1.15,2013-07-22 09:49:00,
2013-07-22 02:54:00,65.3,61.3,29.91,SSE,161,0.0,0.0,87,0.00,,,0.00,0,Wunderground v.1.15,2013-07-22 09:54:00,
2013-07-22 02:59:00,65.1,60.8,29.91,SSE,161,0.0,0.0,86,0.00,,,0.00,0,Wunderground v.1.15,2013-07-22 09:59:00,
2013-07-22 03:05:00,65.0,61.0,29.91,SSE,165,0.0,0.0,87,0.00,,,0.00,0,Wunderground v.1.15,2013-07-22 10:05:00,
2013-07-22 03:11:00,65.0,61.0,29.91,SSE,165,0.0,0.0,87,0.00,,,0.00,0,Wunderground v.1.15,2013-07-22 10:11:00,
2013-07-22 03:16:00,64.9,60.9,29.91,SSE,165,0.0,0.0,87,0.00,,,0.00,0,Wunderground v.1.15,2013-07-22 10:16:00,
2013-07-22 03:21:00,64.8,60.8,29.90,SSE,165,0.0,0.0,87,0.00,,,0.00,0,Wunderground v.1.15,2013-07-22 10:21:00,
2013-07-22 03:27:00,64.9,60.9,29.91,SSE,165,0.0,0.0,87,0.00,,,0.00,0,Wunderground v.1.15,2013-07-22 10:27:00,
2013-07-22 03:32:00,65.0,61.0,29.91,SSE,165,0.0,0.0,87,0.00,,,0.00,0,Wunderground v.1.15,2013-07-22 10:32:00,
2013-07-22 03:38:00,65.0,61.0,29.91,SSE,165,0.0,0.0,87,0.00,,,0.00,0,Wunderground v.1.15,2013-07-22 10:38:00,
2013-07-22 03:43:00,65.0,61.0,29.91,SSE,165,0.0,0.0,87,0.00,,,0.00,0,Wunderground v.1.15,2013-07-22 10:43:00,
2013-07-22 03:48:00,64.9,60.6,29.91,SSE,165,0.0,0.0,86,0.00,,,0.00,0,Wunderground v.1.15,2013-07-22 10:48:00,
2013-07-22 03:54:00,64.9,60.9,29.91,SSE,165,0.0,0.0,87,0.00,,,0.00,0,Wunderground v.1.15,2013-07-22 10:54:00,
2013-07-22 03:59:00,65.0,61.0,29.91,SSE,165,0.0,0.0,87,0.00,,,0.00,0,Wunderground v.1.15,2013-07-22 10:59:00,
2013-07-22 04:05:00,64.8,60.8,29.91,SSE,165,0.0,0.0,87,0.00,,,0.00,0,Wunderground v.1.15,2013-07-22 11:05:00,
2013-07-22 04:10:00,64.5,60.5,29.91,SSE,165,0.0,0.0,87,0.00,,,0.00,0,Wunderground v.1.15,2013-07-22 11:10:00,
2013-07-22 04:16:00,64.6,61.0,29.90,SSE,165,0.0,0.0,88,0.00,,,0.00,0,Wunderground v.1.15,2013-07-22 11:16:00,
2013-07-22 04:21:00,64.6,61.0,29.91,SSE,165,0.0,0.0,88,0.00,,,0.00,0,Wunderground v.1.15,2013-07-22 11:21:00,
2013-07-22 04:26:00,64.2,60.2,29.91,SSE,165,0.0,0.0,87,0.00,,,0.00,0,Wunderground v.1.15,2013-07-22 11:26:00,
2013-07-22 04:32:00,64.2,60.6,29.91,SSE,165,0.0,0.0,88,0.00,,,0.00,0,Wunderground v.1.15,2013-07-22 11:32:00,
2013-07-22 04:37:00,64.2,60.6,29.91,SSE,165,0.0,0.0,88,0.00,,,0.00,0,Wunderground v.1.15,2013-07-22 11:37:00,
2013-07-22 04:43:00,64.5,60.5,29.91,SSE,165,0.0,0.0,87,0.00,,,0.00,0,Wunderground v.1.15,2013-07-22 11:43:00,
2013-07-22 04:48:00,64.4,60.4,29.91,SSE,165,0.0,0.0,87,0.00,,,0.00,0,Wunderground v.1.15,2013-07-22 11:48:00,
2013-07-22 04:54:00,64.3,60.3,29.91,SSE,165,0.0,0.0,87,0.00,,,0.00,0,Wunderground v.1.15,2013-07-22 11:54:00,
2013-07-22 04:59:00,64.2,60.2,29.91,SSE,165,0.0,0.0,87,0.00,,,0.00,0,Wunderground v.1.15,2013-07-22 11:59:00,
2013-07-22 05:05:00,64.0,60.1,29.91,SSE,165,0.0,0.0,87,0.00,,,0.00,0,Wunderground v.1.15,2013-07-22 12:05:00,
2013-07-22 05:10:00,63.5,59.6,29.92,SSE,165,0.0,1.0,87,0.00,,,0.00,0,Wunderground v.1.15,2013-07-22 12:10:00,
2013-07-22 05:15:00,63.4,59.8,29.92,SSE,165,0.0,1.0,88,0.00,,,0.00,0,Wunderground v.1.15,2013-07-22 12:15:00,
2013-07-22 05:20:00,63.5,59.9,29.92,SSE,165,0.0,0.0,88,0.00,,,0.00,0,Wunderground v.1.15,2013-07-22 12:20:00,
2013-07-22 05:26:00,63.5,59.9,29.92,SSE,165,0.0,0.0,88,0.00,,,0.00,0,Wunderground v.1.15,2013-07-22 12:26:00,
2013-07-22 05:31:00,63.5,59.9,29.92,SSE,165,0.0,0.0,88,0.00,,,0.00,0,Wunderground v.1.15,2013-07-22 12:31:00,
2013-07-22 05:37:00,63.2,59.6,29.92,SSE,165,0.0,0.0,88,0.00,,,0.00,0,Wunderground v.1.15,2013-07-22 12:37:00,
2013-07-22 05:42:00,62.6,59.0,29.92,SSE,165,0.0,0.0,88,0.00,,,0.00,0,Wunderground v.1.15,2013-07-22 12:42:00,
2013-07-22 05:47:00,62.5,59.2,29.92,SSE,165,0.0,0.0,89,0.00,,,0.00,0,Wunderground v.1.15,2013-07-22 12:47:00,
2013-07-22 05:53:00,62.7,59.7,29.92,SSE,165,0.0,0.0,90,0.00,,,0.00,0,Wunderground v.1.15,2013-07-22 12:53:00,
2013-07-22 05:58:00,63.0,59.7,29.92,SSE,165,0.0,0.0,89,0.00,,,0.00,0,Wunderground v.1.15,2013-07-22 12:58:00,
2013-07-22 06:03:00,62.9,59.6,29.93,SSE,165,0.0,0.0,89,0.00,,,0.00,5,Wunderground v.1.15,2013-07-22 13:03:00,
2013-07-22 06:09:00,62.8,59.5,29.93,SSE,165,0.0,0.0,89,0.00,,,0.00,11,Wunderground v.1.15,2013-07-22 13:09:00,
2013-07-22 06:14:00,62.9,59.6,29.93,SSE,165,0.0,1.0,89,0.00,,,0.00,16,Wunderground v.1.15,2013-07-22 13:14:00,
2013-07-22 06:20:00,63.0,59.7,29.93,SSE,165,0.0,0.0,89,0.00,,,0.00,16,Wunderground v.1.15,2013-07-22 13:20:00,
2013-07-22 06:25:00,63.0,59.7,29.93,SE,128,0.0,2.0,89,0.00,,,0.00,21,Wunderground v.1.15,2013-07-22 13:25:00,
2013-07-22 06:30:00,63.1,59.8,29.93,SE,128,1.0,2.0,89,0.00,,,0.00,23,Wunderground v.1.15,2013-07-22 13:30:00,
2013-07-22 06:36:00,63.3,60.0,29.93,ESE,123,1.0,2.0,89,0.00,,,0.00,39,Wunderground v.1.15,2013-07-22 13:36:00,
2013-07-22 06:41:00,63.5,60.2,29.93,ESE,123,0.0,0.0,89,0.00,,,0.00,49,Wunderground v.1.15,2013-07-22 13:41:00,
2013-07-22 06:47:00,63.8,60.5,29.93,ESE,123,0.0,0.0,89,0.00,,,0.00,72,Wunderground v.1.15,2013-07-22 13:47:00,
2013-07-22 06:52:00,64.2,60.9,29.93,ESE,123,0.0,0.0,89,0.00,,,0.00,86,Wunderground v.1.15,2013-07-22 13:52:00,
2013-07-22 06:58:00,64.7,61.1,29.93,ESE,123,0.0,1.0,88,0.00,,,0.00,105,Wunderground v.1.15,2013-07-22 13:58:00,
2013-07-22 07:03:00,65.1,61.1,29.93,ESE,123,0.0,0.0,87,0.00,,,0.00,121,Wunderground v.1.15,2013-07-22 14:03:00,
2013-07-22 07:09:00,65.4,61.1,29.93,ESE,123,0.0,0.0,86,0.00,,,0.00,137,Wunderground v.1.15,2013-07-22 14:09:00,
2013-07-22 07:14:00,65.8,61.5,29.94,ESE,123,0.0,0.0,86,0.00,,,0.00,158,Wunderground v.1.15,2013-07-22 14:14:00,
2013-07-22 07:16:00,65.9,61.6,29.94,ESE,123,0.0,0.0,86,0.00,,,0.00,167,Wunderground v.1.15,2013-07-22 14:16:00,
2013-07-22 07:21:00,66.3,61.7,29.94,ESE,123,0.0,0.0,85,0.00,,,0.00,190,Wunderground v.1.15,2013-07-22 14:21:00,
2013-07-22 07:27:00,66.9,62.2,29.94,WNW,292,0.0,2.0,85,0.00,,,0.00,218,Wunderground v.1.15,2013-07-22 14:27:00,
2013-07-22 07:32:00,67.2,62.5,29.94,West,280,1.0,2.0,85,0.00,,,0.00,188,Wunderground v.1.15,2013-07-22 14:32:00,
2013-07-22 07:38:00,67.4,62.4,29.95,West,277,1.0,2.0,84,0.00,,,0.00,227,Wunderground v.1.15,2013-07-22 14:38:00,
2013-07-22 07:43:00,67.6,62.6,29.94,NW,313,1.0,2.0,84,0.00,,,0.00,230,Wunderground v.1.15,2013-07-22 14:43:00,
2013-07-22 07:48:00,68.0,63.0,29.95,SW,236,2.0,3.0,84,0.00,,,0.00,267,Wunderground v.1.15,2013-07-22 14:48:00,
2013-07-22 07:54:00,68.6,63.2,29.95,SSW,213,2.0,3.0,83,0.00,,,0.00,271,Wunderground v.1.15,2013-07-22 14:54:00,
2013-07-22 07:59:00,69.0,63.3,29.95,South,186,2.0,3.0,82,0.00,,,0.00,283,Wunderground v.1.15,2013-07-22 14:59:00,
2013-07-22 08:05:00,69.2,63.1,29.95,South,182,2.0,4.0,81,0.00,,,0.00,299,Wunderground v.1.15,2013-07-22 15:05:00,
2013-07-22 08:11:00,69.4,63.3,29.95,South,170,3.0,5.0,81,0.00,,,0.00,315,Wunderground v.1.15,2013-07-22 15:11:00,
2013-07-22 08:16:00,69.6,63.5,29.95,South,188,2.0,5.0,81,0.00,,,0.00,330,Wunderground v.1.15,2013-07-22 15:16:00,
2013-07-22 08:22:00,70.0,63.5,29.95,WSW,237,1.0,5.0,80,0.00,,,0.00,350,Wunderground v.1.15,2013-07-22 15:22:00,
2013-07-22 08:27:00,70.5,63.7,29.96,SW,215,2.0,5.0,79,0.00,,,0.00,366,Wunderground v.1.15,2013-07-22 15:27:00,
2013-07-22 08:33:00,70.6,63.8,29.95,SSW,199,2.0,7.0,79,0.00,,,0.00,378,Wunderground v.1.15,2013-07-22 15:33:00,
2013-07-22 08:38:00,70.6,63.8,29.95,SW,225,3.0,7.0,79,0.00,,,0.00,396,Wunderground v.1.15,2013-07-22 15:38:00,
2013-07-22 08:43:00,70.8,64.0,29.95,SSW,205,3.0,4.0,79,0.00,,,0.00,408,Wunderground v.1.15,2013-07-22 15:43:00,
2013-07-22 08:49:00,71.3,64.1,29.95,SSW,203,3.0,5.0,78,0.00,,,0.00,420,Wunderground v.1.15,2013-07-22 15:49:00,
2013-07-22 08:54:00,71.8,64.2,29.95,South,180,2.0,5.0,77,0.00,,,0.00,431,Wunderground v.1.15,2013-07-22 15:54:00,
2013-07-22 09:00:00,72.0,64.0,29.96,South,190,2.0,5.0,76,0.00,,,0.00,455,Wunderground v.1.15,2013-07-22 16:00:00,
2013-07-22 09:05:00,72.2,64.2,29.96,SSW,203,3.0,5.0,76,0.00,,,0.00,473,Wunderground v.1.15,2013-07-22 16:05:00,
2013-07-22 09:11:00,72.4,64.4,29.96,South,191,2.0,3.0,76,0.00,,,0.00,494,Wunderground v.1.15,2013-07-22 16:11:00,
2013-07-22 09:16:00,73.1,64.7,29.96,SW,215,2.0,4.0,75,0.00,,,0.00,510,Wunderground v.1.15,2013-07-22 16:16:00,
2013-07-22 09:21:00,73.4,64.6,29.96,SSW,212,2.0,4.0,74,0.00,,,0.00,524,Wunderground v.1.15,2013-07-22 16:21:00,
2013-07-22 09:27:00,73.4,64.6,29.96,WSW,250,3.0,6.0,74,0.00,,,0.00,533,Wunderground v.1.15,2013-07-22 16:27:00,
2013-07-22 09:32:00,73.6,64.4,29.96,SSE,148,3.0,4.0,73,0.00,,,0.00,557,Wunderground v.1.15,2013-07-22 16:32:00,
2013-07-22 09:38:00,74.1,64.5,29.96,SSW,212,3.0,6.0,72,0.00,,,0.00,570,Wunderground v.1.15,2013-07-22 16:38:00,
2013-07-22 09:43:00,74.0,64.8,29.96,SE,137,4.0,5.0,73,0.00,,,0.00,582,Wunderground v.1.15,2013-07-22 16:43:00,
2013-07-22 09:48:00,74.4,64.8,29.96,SE,132,3.0,5.0,72,0.00,,,0.00,594,Wunderground v.1.15,2013-07-22 16:48:00,
2013-07-22 09:54:00,74.3,64.7,29.96,SW,228,2.0,4.0,72,0.00,,,0.00,612,Wunderground v.1.15,2013-07-22 16:54:00,
2013-07-22 09:59:00,75.0,64.5,29.96,SSW,194,3.0,3.0,70,0.00,,,0.00,633,Wunderground v.1.15,2013-07-22 16:59:00,
2013-07-22 10:05:00,75.2,64.7,29.96,West,278,4.0,6.0,70,0.00,,,0.00,640,Wunderground v.1.15,2013-07-22 17:05:00,
2013-07-22 10:10:00,75.5,65.0,29.96,SSW,213,3.0,3.0,70,0.00,,,0.00,652,Wunderground v.1.15,2013-07-22 17:10:00,
2013-07-22 10:15:00,76.5,65.1,29.96,SSW,203,3.0,7.0,68,0.00,,,0.00,673,Wunderground v.1.15,2013-07-22 17:15:00,
2013-07-22 10:21:00,76.4,65.1,29.96,SW,234,3.0,4.0,68,0.00,,,0.00,680,Wunderground v.1.15,2013-07-22 17:21:00,
2013-07-22 10:26:00,76.7,64.9,29.96,SW,220,4.0,6.0,67,0.00,,,0.00,691,Wunderground v.1.15,2013-07-22 17:26:00,
2013-07-22 10:32:00,76.9,65.1,29.96,SSW,202,3.0,7.0,67,0.00,,,0.00,707,Wunderground v.1.15,2013-07-22 17:32:00,
2013-07-22 10:37:00,76.4,64.6,29.96,NW,313,2.0,7.0,67,0.00,,,0.00,715,Wunderground v.1.15,2013-07-22 17:37:00,
2013-07-22 10:42:00,76.9,64.7,29.96,SW,225,2.0,8.0,66,0.00,,,0.00,729,Wunderground v.1.15,2013-07-22 17:42:00,
2013-07-22 10:48:00,77.7,65.0,29.96,SW,219,4.0,8.0,65,0.00,,,0.00,737,Wunderground v.1.15,2013-07-22 17:48:00,
2013-07-22 10:53:00,77.4,64.3,29.96,SW,214,5.0,6.0,64,0.00,,,0.00,733,Wunderground v.1.15,2013-07-22 17:53:00,
2013-07-22 10:58:00,77.5,64.4,29.96,ESE,121,3.0,6.0,64,0.00,,,0.00,758,Wunderground v.1.15,2013-07-22 17:58:00,
2013-07-22 11:04:00,78.1,64.9,29.96,West,270,3.0,5.0,64,0.00,,,0.00,761,Wunderground v.1.15,2013-07-22 18:04:00,
2013-07-22 11:09:00,78.8,65.1,29.97,NW,305,3.0,3.0,63,0.00,,,0.00,770,Wunderground v.1.15,2013-07-22 18:09:00,
2013-07-22 11:15:00,79.2,65.1,29.96,SSW,211,3.0,5.0,62,0.00,,,0.00,786,Wunderground v.1.15,2013-07-22 18:15:00,
2013-07-22 11:20:00,79.5,64.9,29.96,SW,215,3.0,5.0,61,0.00,,,0.00,802,Wunderground v.1.15,2013-07-22 18:20:00,
2013-07-22 11:26:00,79.9,64.8,29.96,West,276,2.0,5.0,60,0.00,,,0.00,807,Wunderground v.1.15,2013-07-22 18:26:00,
2013-07-22 11:32:00,79.8,65.2,29.96,WSW,246,4.0,8.0,61,0.00,,,0.00,810,Wunderground v.1.15,2013-07-22 18:32:00,
2013-07-22 11:38:00,80.2,65.1,29.96,WNW,293,4.0,8.0,60,0.00,,,0.00,821,Wunderground v.1.15,2013-07-22 18:38:00,
2013-07-22 11:46:00,81.2,65.0,29.95,South,180,3.0,8.0,58,0.00,,,0.00,830,Wunderground v.1.15,2013-07-22 18:46:00,
2013-07-22 11:53:00,81.3,65.1,29.95,SW,220,3.0,4.0,58,0.00,,,0.00,840,Wunderground v.1.15,2013-07-22 18:53:00,
2013-07-22 11:59:00,82.2,65.4,29.95,South,187,2.0,3.0,57,0.00,,,0.00,847,Wunderground v.1.15,2013-07-22 18:59:00,
2013-07-22 12:05:00,83.3,65.4,29.95,South,180,3.0,8.0,55,0.00,,,0.00,846,Wunderground v.1.15,2013-07-22 19:05:00,
2013-07-22 12:10:00,83.2,64.8,29.95,West,265,3.0,3.0,54,0.00,,,0.00,853,Wunderground v.1.15,2013-07-22 19:10:00,
2013-07-22 12:16:00,83.1,64.7,29.95,WNW,296,3.0,8.0,54,0.00,,,0.00,858,Wunderground v.1.15,2013-07-22 19:16:00,
2013-07-22 12:21:00,82.2,64.9,29.95,West,269,4.0,4.0,56,0.00,,,0.00,867,Wunderground v.1.15,2013-07-22 19:21:00,
2013-07-22 12:28:00,83.1,65.3,29.95,WSW,238,4.0,6.0,55,0.00,,,0.00,868,Wunderground v.1.15,2013-07-22 19:28:00,
2013-07-22 12:35:00,83.8,65.4,29.95,SW,223,5.0,7.0,54,0.00,,,0.00,877,Wunderground v.1.15,2013-07-22 19:35:00,
2013-07-22 12:40:00,82.8,64.5,29.95,NNW,333,5.0,5.0,54,0.00,,,0.00,875,Wunderground v.1.15,2013-07-22 19:40:00,
2013-07-22 12:46:00,83.5,64.6,29.94,WSW,255,5.0,8.0,53,0.00,,,0.00,874,Wunderground v.1.15,2013-07-22 19:46:00,
2013-07-22 12:52:00,83.8,64.8,29.95,SW,229,5.0,7.0,53,0.00,,,0.00,870,Wunderground v.1.15,2013-07-22 19:52:00,
2013-07-22 12:57:00,84.3,64.8,29.94,West,280,5.0,7.0,52,0.00,,,0.00,918,Wunderground v.1.15,2013-07-22 19:57:00,
2013-07-22 13:03:00,83.6,64.1,29.94,WNW,283,5.0,7.0,52,0.00,,,0.00,875,Wunderground v.1.15,2013-07-22 20:03:00,
2013-07-22 13:08:00,84.3,64.2,29.94,SW,217,5.0,8.0,51,0.00,,,0.00,870,Wunderground v.1.15,2013-07-22 20:08:00,
2013-07-22 13:14:00,84.1,63.5,29.94,NNW,329,5.0,8.0,50,0.00,,,0.00,954,Wunderground v.1.15,2013-07-22 20:14:00,
2013-07-22 13:17:00,84.3,64.2,29.94,SSW,213,5.0,8.0,51,0.00,,,0.00,870,Wunderground v.1.15,2013-07-22 20:17:00,
2013-07-22 13:18:00,84.4,63.7,29.94,SW,216,5.0,8.0,50,0.00,,,0.00,872,Wunderground v.1.15,2013-07-22 20:18:00,
2013-07-22 13:20:00,84.7,64.6,29.94,West,275,5.0,6.0,51,0.00,,,0.00,870,Wunderground v.1.15,2013-07-22 20:20:00,
2013-07-22 13:21:00,84.8,64.1,29.94,SSW,192,5.0,7.0,50,0.00,,,0.00,870,Wunderground v.1.15,2013-07-22 20:21:00,
2013-07-22 13:25:00,84.9,64.2,29.94,West,265,5.0,7.0,50,0.00,,,0.00,870,Wunderground v.1.15,2013-07-22 20:25:00,
2013-07-22 13:31:00,85.1,64.4,29.94,SSW,198,6.0,9.0,50,0.00,,,0.00,861,Wunderground v.1.15,2013-07-22 20:31:00,
2013-07-22 13:36:00,84.2,64.7,29.94,West,263,6.0,9.0,52,0.00,,,0.00,858,Wunderground v.1.15,2013-07-22 20:36:00,
2013-07-22 13:41:00,84.3,65.3,29.94,South,179,6.0,8.0,53,0.00,,,0.00,856,Wunderground v.1.15,2013-07-22 20:41:00,
2013-07-22 13:47:00,84.0,64.5,29.94,West,267,5.0,8.0,52,0.00,,,0.00,853,Wunderground v.1.15,2013-07-22 20:47:00,
2013-07-22 13:49:00,83.9,65.5,29.94,West,265,5.0,5.0,54,0.00,,,0.00,853,Wunderground v.1.15,2013-07-22 20:49:00,
2013-07-22 13:54:00,84.9,65.3,29.94,SW,219,5.0,8.0,52,0.00,,,0.00,849,Wunderground v.1.15,2013-07-22 20:54:00,
2013-07-22 13:59:00,84.5,64.4,29.94,South,190,6.0,7.0,51,0.00,,,0.00,844,Wunderground v.1.15,2013-07-22 20:59:00,
2013-07-22 14:05:00,84.3,64.8,29.94,SSW,209,5.0,7.0,52,0.00,,,0.00,840,Wunderground v.1.15,2013-07-22 21:05:00,
2013-07-22 14:11:00,83.8,64.8,29.94,SSW,206,6.0,11.0,53,0.00,,,0.00,830,Wunderground v.1.15,2013-07-22 21:11:00,
2013-07-22 14:16:00,83.9,64.4,29.94,SW,227,6.0,11.0,52,0.00,,,0.00,821,Wunderground v.1.15,2013-07-22 21:16:00,
2013-07-22 14:22:00,84.1,64.6,29.94,SW,219,6.0,12.0,52,0.00,,,0.00,817,Wunderground v.1.15,2013-07-22 21:22:00,
2013-07-22 14:27:00,84.8,64.7,29.94,West,275,5.0,12.0,51,0.00,,,0.00,814,Wunderground v.1.15,2013-07-22 21:27:00,
2013-07-22 14:32:00,84.5,64.4,29.94,WSW,246,6.0,9.0,51,0.00,,,0.00,803,Wunderground v.1.15,2013-07-22 21:32:00,
2013-07-22 14:38:00,83.6,64.1,29.94,SW,221,7.0,11.0,52,0.00,,,0.00,791,Wunderground v.1.15,2013-07-22 21:38:00,
2013-07-22 14:43:00,84.1,64.6,29.94,SW,223,6.0,8.0,52,0.00,,,0.00,788,Wunderground v.1.15,2013-07-22 21:43:00,
2013-07-22 14:48:00,83.7,64.2,29.93,SSW,213,5.0,8.0,52,0.00,,,0.00,782,Wunderground v.1.15,2013-07-22 21:48:00,
2013-07-22 14:54:00,83.6,64.1,29.93,SSW,209,5.0,6.0,52,0.00,,,0.00,775,Wunderground v.1.15,2013-07-22 21:54:00,
2013-07-22 14:59:00,83.8,64.3,29.93,WNW,290,4.0,5.0,52,0.00,,,0.00,759,Wunderground v.1.15,2013-07-22 21:59:00,
2013-07-22 15:05:00,83.8,64.3,29.93,SSW,208,5.0,10.0,52,0.00,,,0.00,751,Wunderground v.1.15,2013-07-22 22:05:00,
2013-07-22 15:11:00,83.7,64.2,29.93,SSW,212,6.0,9.0,52,0.00,,,0.00,735,Wunderground v.1.15,2013-07-22 22:11:00,
2013-07-22 15:16:00,83.2,64.3,29.93,SSW,210,6.0,9.0,53,0.00,,,0.00,728,Wunderground v.1.15,2013-07-22 22:16:00,
2013-07-22 15:22:00,83.5,64.0,29.93,SW,227,5.0,8.0,52,0.00,,,0.00,712,Wunderground v.1.15,2013-07-22 22:22:00,
2013-07-22 15:27:00,83.6,64.7,29.93,SSW,193,5.0,8.0,53,0.00,,,0.00,705,Wunderground v.1.15,2013-07-22 22:27:00,
2013-07-22 15:32:00,83.1,63.7,29.93,SW,223,6.0,7.0,52,0.00,,,0.00,700,Wunderground v.1.15,2013-07-22 22:32:00,
2013-07-22 15:38:00,83.3,63.8,29.93,West,277,5.0,8.0,52,0.00,,,0.00,680,Wunderground v.1.15,2013-07-22 22:38:00,
2013-07-22 15:43:00,83.6,64.1,29.93,West,278,5.0,9.0,52,0.00,,,0.00,668,Wunderground v.1.15,2013-07-22 22:43:00,
2013-07-22 15:49:00,83.7,63.1,29.93,WNW,297,5.0,5.0,50,0.00,,,0.00,659,Wunderground v.1.15,2013-07-22 22:49:00,
2013-07-22 15:54:00,83.4,63.4,29.93,SSW,199,4.0,7.0,51,0.00,,,0.00,635,Wunderground v.1.15,2013-07-22 22:54:00,
2013-07-22 16:00:00,83.3,63.3,29.93,SW,222,5.0,6.0,51,0.00,,,0.00,629,Wunderground v.1.15,2013-07-22 23:00:00,
2013-07-22 16:05:00,83.2,62.6,29.93,WSW,238,6.0,12.0,50,0.00,,,0.00,624,Wunderground v.1.15,2013-07-22 23:05:00,
2013-07-22 16:10:00,83.3,63.3,29.93,SW,215,6.0,11.0,51,0.00,,,0.00,601,Wunderground v.1.15,2013-07-22 23:10:00,
2013-07-22 16:16:00,83.4,63.4,29.92,South,190,6.0,11.0,51,0.00,,,0.00,587,Wunderground v.1.15,2013-07-22 23:16:00,
2013-07-22 16:21:00,83.7,63.7,29.92,WNW,288,5.0,6.0,51,0.00,,,0.00,582,Wunderground v.1.15,2013-07-22 23:21:00,
2013-07-22 16:26:00,84.2,63.5,29.92,SSW,207,4.0,6.0,50,0.00,,,0.00,577,Wunderground v.1.15,2013-07-22 23:26:00,
2013-07-22 16:32:00,83.6,63.0,29.92,West,263,5.0,6.0,50,0.00,,,0.00,545,Wunderground v.1.15,2013-07-22 23:32:00,
2013-07-22 16:37:00,83.3,62.7,29.92,WNW,302,6.0,7.0,50,0.00,,,0.00,529,Wunderground v.1.15,2013-07-22 23:37:00,
2013-07-22 16:42:00,83.2,62.6,29.92,SSW,209,5.0,6.0,50,0.00,,,0.00,513,Wunderground v.1.15,2013-07-22 23:42:00,
2013-07-22 16:48:00,82.9,62.9,29.92,SSW,194,5.0,8.0,51,0.00,,,0.00,497,Wunderground v.1.15,2013-07-22 23:48:00,
2013-07-22 16:53:00,82.1,62.7,29.91,WSW,253,6.0,8.0,52,0.00,,,0.00,483,Wunderground v.1.15,2013-07-22 23:53:00,
2013-07-22 16:59:00,81.7,62.4,29.91,WSW,238,6.0,7.0,52,0.00,,,0.00,464,Wunderground v.1.15,2013-07-22 23:59:00,
2013-07-22 17:05:00,81.6,62.3,29.91,SSW,208,5.0,12.0,52,0.00,,,0.00,445,Wunderground v.1.15,2013-07-23 00:05:00,
2013-07-22 17:11:00,81.7,62.4,29.92,WSW,242,4.0,7.0,52,0.00,,,0.00,429,Wunderground v.1.15,2013-07-23 00:11:00,
2013-07-22 17:16:00,81.1,62.3,29.92,WSW,247,4.0,7.0,53,0.00,,,0.00,413,Wunderground v.1.15,2013-07-23 00:16:00,
2013-07-22 17:21:00,80.8,62.6,29.92,SSE,155,5.0,5.0,54,0.00,,,0.00,397,Wunderground v.1.15,2013-07-23 00:21:00,
2013-07-22 17:27:00,80.5,62.3,29.91,SW,221,4.0,8.0,54,0.00,,,0.00,380,Wunderground v.1.15,2013-07-23 00:27:00,
2013-07-22 17:32:00,80.0,62.4,29.92,SSE,147,5.0,7.0,55,0.00,,,0.00,362,Wunderground v.1.15,2013-07-23 00:32:00,
2013-07-22 17:38:00,80.5,62.3,29.92,WNW,284,5.0,8.0,54,0.00,,,0.00,345,Wunderground v.1.15,2013-07-23 00:38:00,
2013-07-22 17:43:00,79.5,61.9,29.92,SSW,211,4.0,6.0,55,0.00,,,0.00,330,Wunderground v.1.15,2013-07-23 00:43:00,
2013-07-22 17:49:00,79.7,62.1,29.92,SSW,207,4.0,4.0,55,0.00,,,0.00,313,Wunderground v.1.15,2013-07-23 00:49:00,
2013-07-22 17:54:00,79.4,62.3,29.92,SE,134,5.0,10.0,56,0.00,,,0.00,297,Wunderground v.1.15,2013-07-23 00:54:00,
2013-07-22 18:00:00,78.8,62.3,29.92,SSW,194,5.0,5.0,57,0.00,,,0.00,279,Wunderground v.1.15,2013-07-23 01:00:00,
2013-07-22 18:05:00,78.6,62.6,29.92,WSW,248,6.0,10.0,58,0.00,,,0.00,264,Wunderground v.1.15,2013-07-23 01:05:00,
2013-07-22 18:10:00,78.1,62.1,29.92,WSW,237,6.0,7.0,58,0.00,,,0.00,246,Wunderground v.1.15,2013-07-23 01:10:00,
2013-07-22 18:16:00,77.6,62.1,29.92,SSW,201,6.0,7.0,59,0.00,,,0.00,227,Wunderground v.1.15,2013-07-23 01:16:00,
2013-07-22 18:21:00,77.0,62.0,29.92,SSW,204,6.0,7.0,60,0.00,,,0.00,211,Wunderground v.1.15,2013-07-23 01:21:00,
2013-07-22 18:26:00,76.7,62.2,29.92,ESE,105,4.0,7.0,61,0.00,,,0.00,195,Wunderground v.1.15,2013-07-23 01:26:00,
2013-07-22 18:32:00,76.8,61.9,29.92,WSW,257,2.0,4.0,60,0.00,,,0.00,174,Wunderground v.1.15,2013-07-23 01:32:00,
2013-07-22 18:37:00,77.0,62.0,29.92,SW,228,3.0,5.0,60,0.00,,,0.00,160,Wunderground v.1.15,2013-07-23 01:37:00,
2013-07-22 18:43:00,76.6,61.7,29.92,SSW,205,4.0,7.0,60,0.00,,,0.00,139,Wunderground v.1.15,2013-07-23 01:43:00,
2013-07-22 18:48:00,76.3,61.9,29.92,SSW,203,5.0,7.0,61,0.00,,,0.00,123,Wunderground v.1.15,2013-07-23 01:48:00,
2013-07-22 18:53:00,76.0,62.0,29.93,SSW,201,4.0,5.0,62,0.00,,,0.00,107,Wunderground v.1.15,2013-07-23 01:53:00,
2013-07-22 18:59:00,75.8,61.4,29.93,SW,232,4.0,4.0,61,0.00,,,0.00,90,Wunderground v.1.15,2013-07-23 01:59:00,
2013-07-22 19:05:00,75.7,61.3,29.93,SW,234,4.0,6.0,61,0.00,,,0.00,76,Wunderground v.1.15,2013-07-23 02:05:00,
2013-07-22 19:10:00,75.3,61.8,29.93,SW,225,4.0,4.0,63,0.00,,,0.00,63,Wunderground v.1.15,2013-07-23 02:10:00,
2013-07-22 19:15:00,75.1,61.6,29.93,SW,223,3.0,5.0,63,0.00,,,0.00,51,Wunderground v.1.15,2013-07-23 02:15:00,
2013-07-22 19:21:00,74.8,61.4,29.93,SW,227,4.0,7.0,63,0.00,,,0.00,28,Wunderground v.1.15,2013-07-23 02:21:00,
2013-07-22 19:26:00,74.4,61.4,29.94,SSW,208,4.0,7.0,64,0.00,,,0.00,25,Wunderground v.1.15,2013-07-23 02:26:00,
2013-07-22 19:32:00,74.1,61.6,29.94,SW,234,3.0,5.0,65,0.00,,,0.00,21,Wunderground v.1.15,2013-07-23 02:32:00,
2013-07-22 19:37:00,73.8,61.7,29.94,SW,220,3.0,5.0,66,0.00,,,0.00,18,Wunderground v.1.15,2013-07-23 02:37:00,
2013-07-22 19:42:00,73.5,61.4,29.94,WSW,248,3.0,6.0,66,0.00,,,0.00,14,Wunderground v.1.15,2013-07-23 02:42:00,
2013-07-22 19:48:00,73.4,61.3,29.94,SE,146,3.0,6.0,66,0.00,,,0.00,9,Wunderground v.1.15,2013-07-23 02:48:00,
2013-07-22 19:53:00,73.2,61.6,29.94,SW,229,3.0,4.0,67,0.00,,,0.00,5,Wunderground v.1.15,2013-07-23 02:53:00,
2013-07-22 20:00:00,72.9,61.7,29.94,SW,227,2.0,3.0,68,0.00,,,0.00,0,Wunderground v.1.15,2013-07-23 03:00:00,
2013-07-22 20:05:00,72.9,61.7,29.94,SW,221,1.0,3.0,68,0.00,,,0.00,0,Wunderground v.1.15,2013-07-23 03:05:00,
2013-07-22 20:10:00,72.7,61.5,29.94,SW,219,2.0,8.0,68,0.00,,,0.00,0,Wunderground v.1.15,2013-07-23 03:10:00,
2013-07-22 20:16:00,72.3,61.1,29.95,SW,221,3.0,8.0,68,0.00,,,0.00,0,Wunderground v.1.15,2013-07-23 03:16:00,
2013-07-22 20:21:00,72.2,61.5,29.95,WSW,247,2.0,3.0,69,0.00,,,0.00,0,Wunderground v.1.15,2013-07-23 03:21:00,
2013-07-22 20:26:00,72.0,61.3,29.95,SSW,205,2.0,3.0,69,0.00,,,0.00,0,Wunderground v.1.15,2013-07-23 03:26:00,
2013-07-22 20:32:00,71.8,61.1,29.95,SE,124,1.0,2.0,69,0.00,,,0.00,0,Wunderground v.1.15,2013-07-23 03:32:00,
2013-07-22 20:37:00,71.8,61.1,29.95,SW,225,1.0,3.0,69,0.00,,,0.00,0,Wunderground v.1.15,2013-07-23 03:37:00,
2013-07-22 20:43:00,71.7,61.4,29.95,South,186,1.0,3.0,70,0.00,,,0.00,0,Wunderground v.1.15,2013-07-23 03:43:00,
2013-07-22 20:48:00,71.5,61.2,29.95,SSE,149,1.0,3.0,70,0.00,,,0.00,0,Wunderground v.1.15,2013-07-23 03:48:00,
2013-07-22 20:53:00,71.4,61.1,29.95,SE,144,1.0,4.0,70,0.00,,,0.00,0,Wunderground v.1.15,2013-07-23 03:53:00,
2013-07-22 20:59:00,71.1,61.2,29.94,ESE,111,1.0,1.0,71,0.00,,,0.00,0,Wunderground v.1.15,2013-07-23 03:59:00,
2013-07-22 21:01:00,71.0,61.1,29.94,ESE,120,2.0,2.0,71,0.00,,,0.00,0,Wunderground v.1.15,2013-07-23 04:01:00,
2013-07-22 21:04:00,71.0,61.5,29.94,SE,132,1.0,2.0,72,0.00,,,0.00,0,Wunderground v.1.15,2013-07-23 04:04:00,
2013-07-22 21:05:00,70.9,61.4,29.94,SE,137,1.0,2.0,72,0.00,,,0.00,0,Wunderground v.1.15,2013-07-23 04:05:00,
2013-07-22 21:10:00,70.8,61.3,29.94,West,270,0.0,2.0,72,0.00,,,0.00,0,Wunderground v.1.15,2013-07-23 04:10:00,
2013-07-22 21:15:00,71.0,61.5,29.94,SW,215,0.0,2.0,72,0.00,,,0.00,0,Wunderground v.1.15,2013-07-23 04:15:00,
2013-07-22 21:18:00,71.0,61.5,29.94,SW,217,0.0,2.0,72,0.00,,,0.00,0,Wunderground v.1.15,2013-07-23 04:18:00,
2013-07-22 21:23:00,71.0,61.5,29.95,SW,217,0.0,0.0,72,0.00,,,0.00,0,Wunderground v.1.15,2013-07-23 04:23:00,
2013-07-22 21:28:00,70.9,61.4,29.95,SE,130,0.0,2.0,72,0.00,,,0.00,0,Wunderground v.1.15,2013-07-23 04:28:00,
2013-07-22 21:33:00,70.8,61.3,29.95,SSE,149,0.0,0.0,72,0.00,,,0.00,0,Wunderground v.1.15,2013-07-23 04:33:00,
2013-07-22 21:39:00,70.6,61.1,29.96,SW,227,0.0,0.0,72,0.00,,,0.00,0,Wunderground v.1.15,2013-07-23 04:39:00,
2013-07-22 21:44:00,70.5,61.4,29.96,SW,228,0.0,0.0,73,0.00,,,0.00,0,Wunderground v.1.15,2013-07-23 04:44:00,
2013-07-22 21:50:00,70.4,61.3,29.95,SW,215,0.0,0.0,73,0.00,,,0.00,0,Wunderground v.1.15,2013-07-23 04:50:00,
2013-07-22 21:56:00,70.3,61.2,29.96,SSW,195,0.0,4.0,73,0.00,,,0.00,0,Wunderground v.1.15,2013-07-23 04:56:00,
2013-07-22 22:01:00,70.5,61.4,29.96,SSW,195,0.0,0.0,73,0.00,,,0.00,0,Wunderground v.1.15,2013-07-23 05:01:00,
2013-07-22 22:07:00,70.2,60.7,29.96,NE,55,0.0,0.0,72,0.00,,,0.00,0,Wunderground v.1.15,2013-07-23 05:07:00,
2013-07-22 22:12:00,70.0,60.9,29.96,NE,46,0.0,0.0,73,0.00,,,0.00,0,Wunderground v.1.15,2013-07-23 05:12:00,
2013-07-22 22:18:00,69.6,60.9,29.96,NE,46,0.0,0.0,74,0.00,,,0.00,0,Wunderground v.1.15,2013-07-23 05:18:00,
2013-07-22 22:23:00,69.2,60.6,29.96,North,355,0.0,1.0,74,0.00,,,0.00,0,Wunderground v.1.15,2013-07-23 05:23:00,
2013-07-22 22:29:00,69.2,60.6,29.96,North,355,0.0,0.0,74,0.00,,,0.00,0,Wunderground v.1.15,2013-07-23 05:29:00,
2013-07-22 22:34:00,69.4,60.8,29.96,North,355,0.0,0.0,74,0.00,,,0.00,0,Wunderground v.1.15,2013-07-23 05:34:00,
2013-07-22 22:40:00,69.1,60.8,29.97,NE,51,0.0,0.0,75,0.00,,,0.00,0,Wunderground v.1.15,2013-07-23 05:40:00,
2013-07-22 22:46:00,69.2,60.6,29.96,ENE,73,0.0,0.0,74,0.00,,,0.00,0,Wunderground v.1.15,2013-07-23 05:46:00,
2013-07-22 22:51:00,69.2,60.6,29.96,ENE,73,0.0,0.0,74,0.00,,,0.00,0,Wunderground v.1.15,2013-07-23 05:51:00,
2013-07-22 22:57:00,69.1,60.5,29.97,NNE,26,0.0,1.0,74,0.00,,,0.00,0,Wunderground v.1.15,2013-07-23 05:57:00,
2013-07-22 23:02:00,69.0,60.7,29.97,NNE,24,0.0,0.0,75,0.00,,,0.00,0,Wunderground v.1.15,2013-07-23 06:02:00,
2013-07-22 23:08:00,68.3,60.1,29.96,ESE,105,0.0,0.0,75,0.00,,,0.00,0,Wunderground v.1.15,2013-07-23 06:08:00,
2013-07-22 23:13:00,68.0,60.2,29.97,SE,124,0.0,0.0,76,0.00,,,0.00,0,Wunderground v.1.15,2013-07-23 06:13:00,
2013-07-22 23:18:00,68.2,60.3,29.96,SE,124,0.0,0.0,76,0.00,,,0.00,0,Wunderground v.1.15,2013-07-23 06:18:00,
2013-07-22 23:24:00,68.2,60.0,29.97,SE,124,0.0,0.0,75,0.00,,,0.00,0,Wunderground v.1.15,2013-07-23 06:24:00,
2013-07-22 23:29:00,68.2,60.0,29.96,SE,124,0.0,0.0,75,0.00,,,0.00,0,Wunderground v.1.15,2013-07-23 06:29:00,
2013-07-22 23:34:00,68.0,60.2,29.97,SE,131,0.0,0.0,76,0.00,,,0.00,0,Wunderground v.1.15,2013-07-23 06:34:00,
2013-07-22 23:40:00,68.1,59.5,29.97,SE,131,0.0,0.0,74,0.00,,,0.00,0,Wunderground v.1.15,2013-07-23 06:40:00,
2013-07-22 23:45:00,67.9,59.7,29.97,SE,131,0.0,0.0,75,0.00,,,0.00,0,Wunderground v.1.15,2013-07-23 06:45:00,
2013-07-22 23:51:00,68.0,60.5,29.97,SE,146,0.0,0.0,77,0.00,,,0.00,0,Wunderground v.1.15,2013-07-23 06:51:00,
2013-07-22 23:56:00,67.8,60.7,29.96,SE,146,0.0,0.0,78,0.00,,,0.00,0,Wunderground v.1.15,2013-07-23 06:56:00,